TVS498F EGAA-LFBT

Flight info

Callsign TVS498F
Flight time N/A
Altitude 40000
Route LISBO DCT NUMPI P620 DUB DCT BAKUR DCT GUBJE DCT GISOK DCT TACQI DCT MANIG DCT KORER UM616 TUPAR DCT CNA DCT UVELI DCT AGN G17 AUCHE DCT TEPTI
Aircraft B738/M-SDFGHIJ1LORVWXYZ/LB1

Departure

Time N/A
Airport Belfast International Airport (EGAA)

Arrival

Time 2026-04-30 18:15
Airport Tarbes-Lourdes-Pyrénées Airport (LFBT)
Time Latitude Longitude Altitude Speed Heading
2026-04-30 17:39 46.36971 -0.81331 41106 ft 434 kts 155°
2026-04-30 17:42 46.09944 -0.62072 41108 ft 433 kts 155°
2026-04-30 17:43 45.96428 -0.52520 41132 ft 433 kts 155°
2026-04-30 17:44 45.80165 -0.41095 41149 ft 435 kts 156°
2026-04-30 17:47 45.54630 -0.29251 41102 ft 433 kts 175°
2026-04-30 17:48 45.42611 -0.27301 38897 ft 432 kts 175°
2026-04-30 17:48 45.33691 -0.25818 37070 ft 429 kts 175°
2026-04-30 17:49 45.21948 -0.23874 34904 ft 418 kts 176°
2026-04-30 17:50 45.10562 -0.21998 33020 ft 406 kts 175°
2026-04-30 17:51 45.02243 -0.20633 31650 ft 396 kts 175°
2026-04-30 17:52 44.94163 -0.19311 30323 ft 387 kts 175°
2026-04-30 17:53 44.81031 -0.17170 28055 ft 374 kts 175°
2026-04-30 17:54 44.70796 -0.15509 26252 ft 366 kts 175°
2026-04-30 17:55 44.60787 -0.13888 24480 ft 358 kts 176°
2026-04-30 17:56 44.51010 -0.12310 22738 ft 350 kts 176°
2026-04-30 17:57 44.45659 -0.11451 21781 ft 346 kts 176°
2026-04-30 17:58 44.38541 -0.10309 20501 ft 341 kts 176°
2026-04-30 17:59 44.29212 -0.08815 18811 ft 334 kts 176°
2026-04-30 18:00 44.20078 -0.07357 17154 ft 328 kts 175°
2026-04-30 18:00 44.13289 -0.06277 15896 ft 323 kts 175°
2026-04-30 18:01 44.08843 -0.05571 15093 ft 320 kts 175°
2026-04-30 18:02 44.02270 -0.04529 13881 ft 314 kts 175°
2026-04-30 18:02 43.95834 -0.03511 12686 ft 309 kts 176°
2026-04-30 18:03 43.89479 -0.02508 11498 ft 304 kts 176°
2026-04-30 18:04 43.83213 -0.01522 10321 ft 300 kts 175°
2026-04-30 18:05 43.75323 -0.00280 9255 ft 286 kts 175°
2026-04-30 18:06 43.67541 0.00934 7790 ft 286 kts 173°
2026-04-30 18:07 43.60807 0.01989 6577 ft 285 kts 172°
2026-04-30 18:08 43.54911 0.02905 5574 ft 282 kts 171°
2026-04-30 18:09 43.47535 0.04050 4580 ft 241 kts 171°
2026-04-30 18:10 43.41216 0.05036 4195 ft 218 kts 171°
2026-04-30 18:11 43.35697 0.05891 3488 ft 187 kts 171°
2026-04-30 18:11 43.31954 0.06422 3027 ft 175 kts 181°
2026-04-30 18:12 43.28757 0.04893 2994 ft 156 kts 197°
2026-04-30 18:13 43.26708 0.03857 2756 ft 151 kts 197°
2026-04-30 18:13 43.24273 0.02608 2254 ft 135 kts 199°
2026-04-30 18:14 43.22166 0.01546 1820 ft 138 kts 200°
2026-04-30 18:15 43.19466 0.00170 1323 ft 139 kts 200°
2026-04-30 18:15 43.17474 -0.00843 1230 ft 21 kts 200°
2026-04-30 18:16 43.17220 -0.00958 1245 ft 10 kts 202°
2026-04-30 18:16 43.17102 -0.00970 1250 ft 9 kts 127°
2026-04-30 18:17 43.17075 -0.00879 1250 ft 11 kts 109°
2026-04-30 18:17 43.17073 -0.00778 1258 ft 12 kts 50°
2026-04-30 18:17 43.17259 -0.00668 1244 ft 18 kts 20°
2026-04-30 18:18 43.17389 -0.00608 1231 ft 21 kts 18°
2026-04-30 18:18 43.17541 -0.00538 1225 ft 24 kts 19°
2026-04-30 18:18 43.17700 -0.00436 1221 ft 26 kts 28°
2026-04-30 18:18 43.17844 -0.00323 1217 ft 23 kts 31°
2026-04-30 18:19 43.17991 -0.00208 1213 ft 25 kts 28°
2026-04-30 18:19 43.18131 -0.00103 1208 ft 19 kts 28°
2026-04-30 18:19 43.18248 -0.00014 1204 ft 19 kts 30°
2026-04-30 18:19 43.18359 0.00072 1200 ft 17 kts 30°
2026-04-30 18:20 43.18426 0.00137 1197 ft 7 kts 58°
2026-04-30 18:20 43.18426 0.00181 1197 ft 7 kts 104°
2026-04-30 18:20 43.18414 0.00246 1197 ft 7 kts 103°
2026-04-30 18:20 43.18405 0.00310 1196 ft 7 kts 92°
2026-04-30 18:21 43.18431 0.00345 1195 ft 5 kts 15°
2026-04-30 18:21 43.18468 0.00358 1195 ft 4 kts 14°
2026-04-30 18:21 43.18485 0.00365 1195 ft 0 kts 14°